SPACEBEE-69 (48631 NORAD) Tracking and Keplerian Element Data

This shows tracking and keplerian element data for the satellite.

Feedback or suggestion? Click here.




ElementValue
Catalog48631
NameSPACEBEE-69
Epoch Orbit2912
Epoch Day215.14490304
Epoch Year2021
RAAN272.8279
Inclination97.254
Eccentricity0.001415
Argument of Perigee291.7211
Mean Anonmoly68.2515
Mean Motion15.14826844
Decay Rate2.584E-05
L11 48631U 21006EX 21215.14490304 .00002584 00000-0 14217-3 0 9994
L22 48631 97.2540 272.8279 0014150 291.7211 68.2515 15.14826844 29126

Live tracking and technical data element details for SPACEBEE-69 (NORAD 48631). SPACEBEE-69 can be tracked NOW for your location showing map with azimuth and elevation plus other details from your city location.

Track the satellite on the map from your city or location and see movement details for azimuth, elevation, latitude, longitude, range, height, and movement on the map or in text.







IsCatalogInMostPopularTable: catalog: 48631, numindb: 15
Update: records affected: 1



GetName: 48631 SPACEBEE-69

Hit Count: updated at: Tue, 03 Aug 2021 21:48:58 GMT